• MPC Preparation (Info)

  • MPEC 2023-F65 : 2023 FP1

    The following Minor Planet Electronic Circular may be linked-to from your own Web pages, but must not otherwise be redistributed electronically.

    A form allowing access to any MPEC is at the bottom of this page.


    Read MPEC 2023-F64 Read MPEC 2023-F66


    M.P.E.C. 2023-F65                                Issued 2023 March 20, 10:45 UT
    
         The Minor Planet Electronic Circulars contain information on unusual
             minor planets, routine data on comets and natural satellites,
             and occasional editorial announcements.  They are published
        on behalf of Division F of the International Astronomical Union by the
              Minor Planet Center, Smithsonian Astrophysical Observatory,
                              Cambridge, MA 02138, U.S.A.
    			  
                 Prepared using the Tamkin Foundation Computer Network
    
                                  MPC@CFA.HARVARD.EDU
                URL https://www.minorplanetcenter.net/    ISSN 1523-6714
    
                                    2023 FP1                                 
    
    
    Observations:
         K23F01P 1C2023 03 14.23911 10 33 37.58 -06 43 27.0          21.2 GVEF065G96
         K23F01P 1C2023 03 14.25147 10 33 39.00 -06 43 19.9          20.9 GVEF065G96
         K23F01P 1C2023 03 14.25711 10 33 39.67 -06 43 17.0          22.3 GVEF065G96
         K23F01P* C2023 03 16.35547010 39 09.744-06 26 11.50         21.80wUEF065F52
         K23F01P  C2023 03 16.36691210 39 10.916-06 26 06.40         21.85wUEF065F52
         K23F01P  C2023 03 16.37841410 39 12.063-06 26 01.06         21.56wUEF065F52
         K23F01P  C2023 03 16.50014310 39 24.599-06 25 00.19         21.32GVEF065F52
         K23F01P  C2023 03 16.50077410 39 24.685-06 24 59.81         21.45GVEF065F52
         K23F01P |C2023 03 17.07755 10 40 57.68 -06 18 41.2          21.5 GVEF065807
         K23F01P |C2023 03 17.08680 10 40 58.68 -06 18 36.6          21.5 GVEF065807
         K23F01P |C2023 03 17.09604 10 40 59.65 -06 18 32.6          21.7 GVEF065807
         K23F01P KC2023 03 18.37408510 43 53.796-06 10 28.42         21.71GVEF065I52
         K23F01P KC2023 03 18.38024910 43 54.433-06 10 24.17         21.60GVEF065I52
         K23F01P KC2023 03 18.38566110 43 55.009-06 10 21.29         22.11GVEF065I52
         K23F01P KC2023 03 18.39106810 43 55.592-06 10 19.06         21.93GVEF065I52
         K23F01P KC2023 03 20.17168610 47 59.31 -05 56 34.1          22.0 GVEF065H21
         K23F01P KC2023 03 20.17385910 47 59.52 -05 56 32.9          22.1 GVEF065H21
         K23F01P KC2023 03 20.18066910 48 00.18 -05 56 29.7          22.0 GVEF065H21
    
    Observer details:
    807 Cerro Tololo Observatory, La Serena.  Observers T. Linder, R. Holmes, L.
        Horn.  1.00-m f/10.0 astrograph + CCD.
    F52 Pan-STARRS 2, Haleakala.  Observers J. Bulger, T. Lowe, A. Schultz, I.
        Smith, K. Chambers, T. Dukes.  Measurers K. Chambers, S. Chastel, T. de
        Boer, J. Fairlamb, H. Gao, M. Huber, C.-C. Lin, E. Magnier, Y.
        Ramanjooloo, R. Wainscoat, R. Weryk.  1.8-m Ritchey-Chretien + CCD.
    G96 Mt. Lemmon Survey.  Observer D. Rankin.  Measurers B. Gray, D. Rankin, F.
        C. Shelly.  1.5-m reflector + 10K CCD.
    H21 Astronomical Research Observatory, Westfield.  Observer R. Holmes.
        Measurers T. Linder, R. Holmes, L. Horn.  1.3-m f/4.0 astrograph + CCD.
    I52 Steward Observatory, Mt. Lemmon Station.  Observer G. J. Leonard.
        Measurers E. J. Christensen, D. Fay, J. B. Fazekas, D. C. Fuls, A. R.
        Gibbs, A. D. Grauer, H. Groeller, J. K. Hogan, R. A. Kowalski, S. M.
        Larson, G. J. Leonard, D. Rankin, R. L. Seaman, A. Serrano, F. C. Shelly,
        K. W. Wierzchos.  1.0-m prime focus + CCD.
    
    Orbital elements:
    2023 FP1                                                 Earth MOID = 0.0146 AU
    Epoch 2023 Feb. 25.0 TT = JDT 2460000.5                 Veres                   
    M  24.49523              (2000.0)            P               Q                  
    n   0.74088146     Peri.  210.25979     -0.50819117     -0.86109609             
    a   1.2095864      Node   270.28791     +0.79334426     -0.46082536             
    e   0.1760058      Incl.    0.91546     +0.33518147     -0.21483370             
    P   1.33           H   26.60          G   0.15           U   7                  
    Residuals in seconds of arc
    230314 G96 (0.3+  1.3-)   230316 F52  0.0   0.1-    230318 I52  0.1-  0.0
    230314 G96  0.2-  0.1+    230316 F52  0.3+  0.0     230318 I52  0.1-  0.1+
    230314 G96  0.0   0.3+    230317 807  0.2-  0.3-    230318 I52  0.1-  0.5-
    230316 F52  0.0   0.0     230317 807  0.1+  0.2+    230320 H21  0.2-  0.0
    230316 F52  0.2+  0.1-    230317 807  0.2+  0.1+    230320 H21  0.1-  0.2+
    230316 F52  0.0   0.1-    230318 I52  0.1+  1.0-    230320 H21  0.3+  0.3+
    
    Ephemeris:
    2023 FP1                 a,e,i = 1.21, 0.18, 1                   q = 0.9967
    Date    TT    R. A. (2000) Decl.     Delta      r    Elong.  Phase     V
    2023 02 18    08 18 34.4 -07 48 15   0.03053 1.0140   147.3    31.8    20.4
    ...
    2023 03 05    10 01 34.6 -07 49 39   0.04961 1.0382   159.6    19.5    21.1
    ...
    2023 03 13    10 30 06.5 -06 51 48   0.06377 1.0545   162.0    17.0    21.6
    ...
    2023 03 19    10 45 23.3 -06 04 22   0.07607 1.0680   162.0    16.7    22.0
    2023 03 20    10 47 35.8 -05 56 35   0.07828 1.0703   161.9    16.8    22.1
    2023 03 21    10 49 43.9 -05 48 54   0.08052 1.0726   161.7    17.0    22.2
    ...
    2023 03 27    11 01 19.3 -05 06 25   0.09499 1.0873   159.9    18.4    22.6
    ...
    2023 04 04    11 14 42.9 -04 23 15   0.1170  1.1079   156.2    21.4    23.2
    ...
    2023 04 19    11 37 15.4 -03 48 02   0.1671  1.1486   147.5    28.0    24.3
    
    M. P. C. Staff               (C) Copyright 2023 MPC           M.P.E.C. 2023-F65
    


    Read MPEC 2023-F64 Read MPEC 2023-F66


    MPEC number:

    Enter an MPEC number in one of the following forms:

    • 1997-B01 (the full form)
    • J97B01 (the packed version of the full form)
    • B01 (the abbreviated form)